Погода в Кукшенерах

Россия / Республика Марий Эл     55°56′46″N   48°12′48″E
темп.,
°C
ветер,
м/с
пор.,
м/с
влажн.,
%
обл.,
%
осадки,
мм/ч
давл.,
гПа
погр.,
м
20 апреля, вт
вт2000:00+1в513480 0.0 1031381
03:000в412540 0.0 1031294
06:00+1в411540 0.0 1031357
09:00+6вюв69380 0.0 10311075
12:00+9вюв79290 0.0 10301458
15:00+9вюв79280 0.0 10291512
18:00+7вюв5103698 0.0 1028404
21:00+5вюв51443100 0.0 1027420
21 апреля, ср
ср2100:00+4юв71642100 0.0 1025628
03:00+4юв71648100 0.0 1024676
06:00+3юв81750100 0.0 1023764
09:00+5юв91752100 0.1 10221014
12:00+2юв91882100 2.9 1021933
15:00+3юв91782100 5.3 1020918
18:00+2ююв81795100 3.1 1020791
21:00+2ююв81694100 3.3 1019674
22 апреля, чт
чт2200:00+2ю71595100 0.3 1019586
03:00+3ююв61296100 0.3 1020434
06:00+3ююв51196100 0.1 1021441
09:00+5ююв5109596 0.3 1021406
12:00+8ю5987100 0.0 1022709
15:00+11ю6975100 0.0 1021909
18:00+9ююв61283100 0.6 1022574
21:00+8ю51294100 1.6 1022450
23 апреля, пт
пт2300:00+7ю379696 0.5 1022280
03:00+5ю249718 0.6 102375
06:00+6ю22925 0.0 102471
09:00+11ю34725 0.0 1024632
12:00+14ю335633 0.1 10231365
15:00+15ююв335319 0.6 10221247
18:00+12ююв356931 0.8 1022108
21:00+8юв38855 0.9 1022147
24 апреля, сб
сб2400:00+7юв2387100 0.0 102140
03:00+6вюв3790100 0.0 1021136
06:00+7вюв3788100 0.0 1020258
09:00+10вюв4669100 0.0 1019636
12:00+12в4558100 0.0 10171151
15:00+13в4551100 0.0 10151545
18:00+10в4766100 0.0 1015391
21:00+6в3683100 0.0 1014147